Flag for Cyprus Weather past 2 weeks in Nicosia, Cyprus

Now
54 °F

Clear.


Feels Like: 54 °F
Forecast: 48 / 79 °F
Wind: No wind

Location: Ercan

Current Time: Apr 20, 2015 at 12:14:00 AM

Latest Report: Apr 19, 2015 at 11:50 PM


Visibility: 10 mi

Pressure: 29.98 "Hg

Humidity: 82%

Dew point: 48 °F

Location of NicosiaLocation

Historic Weather in Nicosia — Graph

°F

Nicosia temperature yesterday

Maximum temperature yesterday: 77 °F (at 12:20 PM)
Minimum temperature yesterday: 46 °F (at 4:50 AM)
Average temperature yesterday: 63 °F

Past Weeks' High & Low Weather Summary

 TemperatureHumidityPressure
High82 °F (Apr 7, 3:20 PM)94% (Apr 8, 1:50 AM)30.21 "Hg (Apr 8, 1:50 AM)
Low43 °F (Apr 12, 3:20 AM)17% (Apr 7, 12:50 PM)29.50 "Hg (Apr 9, 3:50 AM)
Average59 °F62%29.97 "Hg
* Reported Apr 4 10:20 PM — Apr 19 10:50 PM, Nicosia, Weather by CustomWeather, © 2015

Note: Actual official high and low records may vary slightly from our data, if they occured in-between our weather recording intervals... More about our weather records

Advertising

Nicosia weather history for previous 24 hours

 ConditionsComfort  
Time TempWeatherWind HumidityBarometerVisibility
10:50 PM
Sun, Apr 19
55 °FClear.5 mph72%29.98 "Hg10 mi
10:20 PM59 °FClear.No wind82%29.98 "Hg10 mi
9:50 PM59 °FClear.No wind82%29.98 "Hg10 mi
9:20 PM61 °FClear.No wind77%29.98 "Hg10 mi
8:50 PM61 °FClear.6 mph68%29.98 "Hg10 mi
8:20 PM63 °FSunny.9 mph52%29.98 "Hg10 mi
7:50 PM63 °FPassing clouds.6 mph68%29.98 "HgN/A
7:20 PM66 °FSunny.5 mph60%29.98 "Hg10 mi
6:50 PM68 °FSunny.7 mph56%29.98 "Hg10 mi
6:20 PM72 °FPassing clouds.9 mph53%29.98 "HgN/A
5:50 PM73 °FPassing clouds.12 mph29%29.98 "HgN/A
5:20 PM75 °FPassing clouds.13 mph27%29.98 "HgN/A
4:50 PM75 °FPassing clouds.12 mph27%29.98 "HgN/A
4:20 PM75 °FPassing clouds.14 mph29%29.98 "HgN/A
3:50 PM77 °FPassing clouds.12 mph28%30.01 "HgN/A
3:20 PM75 °FPassing clouds.8 mph29%30.01 "HgN/A
2:50 PM77 °FPassing clouds.12 mph26%30.01 "HgN/A
2:20 PM77 °FPassing clouds.10 mph24%30.04 "HgN/A
1:50 PM77 °FPassing clouds.12 mph26%30.04 "HgN/A
1:20 PM75 °FPassing clouds.12 mph44%30.04 "HgN/A
12:50 PM75 °FPassing clouds.12 mph44%30.04 "HgN/A
12:20 PM77 °FPassing clouds.No wind24%30.04 "HgN/A
11:50 AM73 °FPassing clouds.6 mph25%30.07 "HgN/A
11:20 AM73 °FPassing clouds.7 mph29%30.07 "HgN/A
10:50 AM72 °FPassing clouds.No wind33%30.07 "HgN/A
10:20 AM70 °FPassing clouds.No wind43%30.07 "HgN/A
9:50 AM68 °FPassing clouds.5 mph53%30.07 "HgN/A
9:20 AM64 °FSunny.6 mph60%30.07 "Hg10 mi
8:50 AM61 °FPassing clouds.5 mph77%30.07 "HgN/A
8:20 AM57 °FSunny.7 mph88%30.07 "Hg10 mi
7:50 AM55 °FSunny.5 mph88%30.07 "Hg10 mi
7:20 AM50 °FSunny.5 mph94%30.07 "Hg10 mi
6:50 AM48 °FClear.3 mph94%30.07 "Hg10 mi
6:20 AM48 °FClear.5 mph94%30.07 "Hg4 mi
5:50 AM50 °FClear.7 mph94%30.07 "Hg4 mi
5:20 AM48 °FClear.6 mph94%30.07 "Hg4 mi
4:50 AM46 °FClear.8 mph93%30.07 "Hg4 mi
4:20 AM48 °FClear.6 mph87%30.07 "Hg4 mi
3:50 AM52 °FFog.6 mph88%30.07 "Hg3 mi
3:20 AM50 °FFog.5 mph94%30.07 "Hg3 mi
2:50 AM50 °FFog.6 mph94%30.09 "Hg4 mi
2:20 AM52 °FClear.8 mph94%30.09 "Hg4 mi
1:50 AM50 °FClear.7 mph94%30.09 "Hg5 mi
1:20 AM52 °FClear.5 mph88%30.09 "Hg5 mi
12:50 AM52 °FClear.5 mph88%30.09 "Hg6 mi
12:20 AM52 °FPassing clouds.3 mph94%30.09 "HgN/A
Weather by CustomWeather, © 2015

See weather overviewHow to use our weather pages